Location: ?????????
(38.5999°N, 22.7695°E)
Time: 10:03:35
(UTC+00:00)

SL-24 DEB - Pass Details

Date: 23 May 2024
Orbit: 648 x 683 km, 92.0° (Epoch: 19 June)

Event Time Altitude Azimuth Distance (km) Brightness Sun altitude
Rises 02:14:59 0° 3° (N) 2,982 8.2 -10.1°
Reaches altitude 10° 02:17:13 10° 3° (N) 2,064 7.3 -9.7°
Maximum altitude 02:21:45 82° 276° (W) 661 4.1 -9.0°
Drops below altitude 10° 02:26:14 10° 189° (S) 2,043 6.3 -8.3°
Sets 02:28:27 0° 189° (S) 2,949 7.1 -7.9°
